Regional Weather Roundup
Issued by NWS Charleston, SC

Current Version | Previous Version | Text Only | Print | Product List | Glossary Off
Versions: 1 2 3 4 5 6 7 8 9 10 11 12 13 14 15 16 17 18 19 20 21 22 23 24 25 26 27 28 29 30 31 32 33 34 35 36 37 38 39 40 41 42 43 44 45 46 47 48 49 50

000
ASUS42 KCHS 022310
RWRCHS

REGIONAL WEATHER ROUNDUP
NATIONAL WEATHER SERVICE CHARLESTON SC
700 PM EDT TUE SEP 02 2014

NOTE: "FAIR" INDICATES FEW OR NO CLOUDS BELOW 12,000 FEET WITH NO
SIGNIFICANT WEATHER AND/OR OBSTRUCTIONS TO VISIBILITY.

NOT ALL STATIONS ARE QUALITY CONTROLLED BY THE NATIONAL
WEATHER SERVICE. USE DATA WITH CAUTION...ESPECIALLY
DEWPOINT OBSERVATIONS.

SCZ027-030-031-034>040-042>050-030000-
...SOUTH CAROLINA...

CITY           SKY/WX    TMP DP  RH WIND       PRES   REMARKS
N CHARLESTON   CLOUDY    84  76  76 S10       29.99F HX  93
WATERFRONT PRK   N/A     84 N/A N/A S10         N/A
FORT JOHNSON   NOT AVBL
MOUNT PLEASANT FAIR      84  75  74 S8        30.00F HX  92
JOHNS ISLAND   CLEAR     82  79  89 S9        30.00F HX  93
PINOPOLIS        N/A     81  72  74 CALM      29.92F
MONCKS CORNER    N/A     79  75  89 S3        29.99F
SUMMERVILLE    DRIZZLE   77  73  88 CALM      30.00F
BEAUFORT MCAS  LGT RAIN  78  75  90 VRB3      30.01F
BEAUFORT ARPT  FAIR      79  75  89 CALM      29.99F
HILTON HEAD IS MOCLDY    79  75  89 S3        30.02F
GEORGETOWN     NOT AVBL
WALTERBORO     CLOUDY    77 N/A N/A W3        30.01S
ORANGEBURG     CLOUDY    76  72  87 W5        30.02S
BARNWELL       FAIR      77  72  83 SW5       30.04R
AIKEN          TSTM      75  75 100 E3        30.08S
MANNING        FAIR      81  72  74 S3        30.00S
KINGSTREE      NOT AVBL
COLUMBIA       TSTM      76  72  87 NE3       30.05R
SUMTER         PTCLDY    82  71  69 VRB7      30.01R
FLORENCE       CLOUDY    86  71  60 S8        29.99F HX  91
MYRTLE BEACH   PTCLDY    86  73  66 S12       30.00F HX  93
N MYRTLE BEACH PTCLDY    84  75  74 SW12      30.00F HX  92

$$

GAZ063-065-086>088-099>101-113>116-118-119-134-136>141-150-030000-
...GEORGIA...

CITY           SKY/WX    TMP DP  RH WIND       PRES   REMARKS
SAVANNAH ARPT  LGT RAIN  76  73  91 S7        30.01F
HUNTER AAF     LGT RAIN  75  75  99 CALM      30.00S
FORT STEWART   CLOUDY    74  72  93 SW1       30.01S
STATESBORO     NOT AVBL
SYLVANIA       LGT RAIN  75  74  95 W6        30.04S
CLAXTON        FAIR      77  77 100 CALM      30.02F
THOMSON        PTSUNNY   82  76  82 S13G26    30.06S
AUGUSTA-BUSH   CLOUDY    74  70  87 SW9       30.01F
AUGUSTA-DANIEL LGT RAIN  77  72  84 S7        30.02F
SWAINSBORO     LGT RAIN  77  77 100 E3        30.03F
VIDALIA        LGT RAIN  79  72  78 S5        30.04F
ALMA           CLOUDY    75  73  93 SE3       30.02F
WAYCROSS       LGT RAIN  80  75  86 CALM      30.03R
JESUP            N/A     79  73  83 CALM      30.03S
BRUNSWICK      CLOUDY    77  73  88 CALM      30.03R
SAINT SIMONS   CLOUDY    79  78  97 CALM      30.02R

$$

SCZ027-028-034-036>038-045-046-048>050-GAZ119-141-030000-
...LAKE AND SUPPLEMENTAL COASTAL OBSERVATIONS...

STATION/POSITION TIME  TEMP    WIND        PRES    WAVE   SWELL
                       AIR SEA DIR/SP/G            HT/PER HT/PER/DIR
                 (UTC) (F)     (DEG/KT/KT) (MB)    (FT/S) (FT/S/D)
UPR LAKE MARION  NOT AVBL
WINYAH BAY       2200   84     210/  9     1016.0S
LAKE MURRAY      2200   78     170/ 18/ 25 1015.6R
ACE BASIN NERRS  2200   83        CALM     1017.0S
FORT PULASKI     2300   77     290/  2/  3 1016.7F
SAPELO ISLAND    2200   76     360/  5     1017.0S

$$

ANZ835-935-AMZ111-154-330-350-352-354-374-450-454-472-030000-
...C-MAN AND BUOY OBSERVATIONS...

STATION/POSITION TIME  TEMP    WIND        PRES    WAVE   SWELL
                       AIR SEA DIR/SP/G            HT/PER HT/PER/DIR
                 (UTC) (F)     (DEG/KT/KT) (MB)    (FT/S) (FT/S/D)
FOLLY BEACH CMAN 2200   83     200/ 14/ 15 1017.4F
BUOY 41004       2300   82 84  210/ 14/ 16 1016.4F   3/ 8   2/ 8
BUOY 41008       2300   83 85  150/  8/ 10 1016.6F   2/ 8   2/120/ 8
5E ST. MARYS GA  2300      85                N/A     2/13   2/ 80/13
FRYING PAN BUOY  NOT AVBL
BUOY 41025       2300   82     210/ 17/ 19 1015.3F   4/ 4   2/120/ 8
CAPE LOOKOUT NC  2200   83     210/ 14/ 17 1015.9F
BUOY 41002       2201   81 84  200/ 12/ 14 1018.4    3/12   3/ 80/12
BUOY 41010       2300   83 85  130/  8/ 10 1016.9F   4/10   3/ 60/10
BUOY 41012       NOT AVBL
ST AUGUSTINE FL  2300   82     130/ 11/ 12 1017.0R
CAPERS NEARSHORE 2200   83     230/ 16/ 16   N/A
FRIPP NEARSHORE  NOT AVBL


$$



USA.gov is the U.S. government's official web portal to all federal, state and local government web resources and services.